KZR618Z UACC-UAAA

Flight info

Callsign KZR618Z
Flight time 1h 17m
Altitude 37000
Route BANOS1A BANOS W333 ETEDA ETEDA1Z
Aircraft A21N/M-SDE3FGHIRWY/LB1

Departure

Time 2026-05-06 14:54
Airport Nursultan Nazarbayev International Airport (UACC)

Arrival

Time 2026-05-06 16:12
Airport Almaty International Airport (UAAA)
Time Latitude Longitude Altitude Speed Heading
2026-05-06 14:38 51.02668 71.46227 1170 ft 0 kts 314°
2026-05-06 14:45 51.02667 71.46229 1170 ft 2 kts 314°
2026-05-06 14:45 51.02657 71.46246 1170 ft 2 kts 314°
2026-05-06 14:45 51.02646 71.46262 1170 ft 2 kts 315°
2026-05-06 14:46 51.02635 71.46278 1170 ft 2 kts 315°
2026-05-06 14:46 51.02628 71.46290 1170 ft 1 kts 316°
2026-05-06 14:46 51.02624 71.46304 1170 ft 1 kts 255°
2026-05-06 14:46 51.02626 71.46313 1170 ft 0 kts 220°
2026-05-06 14:47 51.02619 71.46297 1170 ft 3 kts 229°
2026-05-06 14:47 51.02612 71.46286 1170 ft 0 kts 225°
2026-05-06 14:49 51.02606 71.46276 1170 ft 4 kts 225°
2026-05-06 14:50 51.02569 71.46216 1170 ft 10 kts 225°
2026-05-06 14:50 51.02511 71.46124 1169 ft 13 kts 224°
2026-05-06 14:50 51.02426 71.46130 1168 ft 15 kts 139°
2026-05-06 14:50 51.02338 71.46241 1166 ft 16 kts 174°
2026-05-06 14:51 51.02246 71.46143 1167 ft 16 kts 223°
2026-05-06 14:51 51.02158 71.46006 1168 ft 18 kts 224°
2026-05-06 14:51 51.02064 71.45861 1168 ft 19 kts 224°
2026-05-06 14:51 51.01968 71.45712 1169 ft 18 kts 226°
2026-05-06 14:52 51.01876 71.45565 1169 ft 18 kts 224°
2026-05-06 14:52 51.01814 71.45493 1169 ft 7 kts 176°
2026-05-06 14:52 51.01772 71.45532 1170 ft 7 kts 137°
2026-05-06 14:52 51.01736 71.45590 1170 ft 7 kts 134°
2026-05-06 14:53 51.01696 71.45649 1170 ft 8 kts 145°
2026-05-06 14:53 51.01654 71.45675 1170 ft 1 kts 101°
2026-05-06 14:53 51.01657 71.45683 1170 ft 0 kts 40°
2026-05-06 14:53 51.01662 71.45691 1170 ft 8 kts 42°
2026-05-06 14:54 51.01895 71.46059 1169 ft 85 kts 44°
2026-05-06 14:54 51.02485 71.46977 1167 ft 148 kts 44°
2026-05-06 14:54 51.03290 71.48249 1468 ft 172 kts 46°
2026-05-06 14:54 51.04158 71.49616 1990 ft 181 kts 50°
2026-05-06 14:55 51.04537 71.51546 2233 ft 197 kts 97°
2026-05-06 14:55 51.03980 71.53583 2601 ft 211 kts 116°
2026-05-06 14:55 51.03278 71.55675 3120 ft 218 kts 116°
2026-05-06 14:55 51.02560 71.57823 3727 ft 221 kts 116°
2026-05-06 14:56 51.01845 71.59971 4287 ft 225 kts 116°
2026-05-06 14:56 51.01105 71.62179 4854 ft 230 kts 116°
2026-05-06 14:56 51.00350 71.64432 5411 ft 235 kts 117°
2026-05-06 14:56 50.99571 71.66753 5998 ft 239 kts 118°
2026-05-06 14:57 50.98775 71.69053 6545 ft 244 kts 123°
2026-05-06 14:57 50.97627 71.71102 6919 ft 258 kts 139°
2026-05-06 14:57 50.96235 71.73015 7246 ft 276 kts 142°
2026-05-06 14:57 50.94693 71.75021 7673 ft 292 kts 143°
2026-05-06 14:58 50.93117 71.77071 8344 ft 297 kts 143°
2026-05-06 14:58 50.91524 71.79160 9088 ft 300 kts 143°
2026-05-06 14:58 50.89945 71.81245 9776 ft 303 kts 143°
2026-05-06 14:58 50.88305 71.83417 10470 ft 307 kts 143°
2026-05-06 14:59 50.86646 71.85613 10834 ft 321 kts 143°
2026-05-06 14:59 50.84872 71.87955 11193 ft 335 kts 143°
2026-05-06 14:59 50.83087 71.90318 11802 ft 340 kts 143°
2026-05-06 14:59 50.81281 71.92717 12443 ft 343 kts 143°
2026-05-06 15:00 50.79446 71.95149 13080 ft 347 kts 142°
2026-05-06 15:00 50.77605 71.97587 13694 ft 350 kts 142°
2026-05-06 15:00 50.75717 72.00086 14281 ft 354 kts 142°
2026-05-06 15:00 50.73833 72.02573 14834 ft 358 kts 142°
2026-05-06 15:01 50.71908 72.05112 15383 ft 363 kts 142°
2026-05-06 15:01 50.69971 72.07667 15939 ft 366 kts 142°
2026-05-06 15:01 50.68015 72.10246 16492 ft 369 kts 143°
2026-05-06 15:01 50.66065 72.12815 17006 ft 373 kts 143°
2026-05-06 15:02 50.64059 72.15447 17545 ft 376 kts 143°
2026-05-06 15:02 50.62041 72.18095 18101 ft 378 kts 143°
2026-05-06 15:02 50.60031 72.20731 18592 ft 382 kts 143°
2026-05-06 15:02 50.57992 72.23403 19081 ft 385 kts 143°
2026-05-06 15:03 50.55933 72.26099 19593 ft 388 kts 143°
2026-05-06 15:03 50.53857 72.28807 20080 ft 391 kts 143°
2026-05-06 15:03 50.51773 72.31526 20536 ft 394 kts 143°
2026-05-06 15:03 50.49642 72.34304 20998 ft 397 kts 144°
2026-05-06 15:04 50.47535 72.37044 21446 ft 400 kts 143°
2026-05-06 15:04 50.45375 72.39851 21911 ft 403 kts 144°
2026-05-06 15:04 50.43223 72.42645 22334 ft 406 kts 144°
2026-05-06 15:04 50.41054 72.45458 22753 ft 409 kts 144°
2026-05-06 15:05 50.38856 72.48303 23157 ft 412 kts 144°
2026-05-06 15:05 50.36626 72.51186 23578 ft 415 kts 144°
2026-05-06 15:05 50.34412 72.54047 23977 ft 418 kts 144°
2026-05-06 15:05 50.32174 72.56934 24372 ft 421 kts 144°
2026-05-06 15:06 50.29915 72.59845 24726 ft 425 kts 144°
2026-05-06 15:06 50.27623 72.62793 25084 ft 428 kts 143°
2026-05-06 15:06 50.25315 72.65758 25474 ft 430 kts 144°
2026-05-06 15:06 50.22988 72.68751 25825 ft 433 kts 144°
2026-05-06 15:07 50.20673 72.71717 26155 ft 436 kts 144°
2026-05-06 15:07 50.18330 72.74718 26517 ft 438 kts 144°
2026-05-06 15:07 50.15990 72.77709 26863 ft 440 kts 144°
2026-05-06 15:07 50.13601 72.80759 27130 ft 444 kts 144°
2026-05-06 15:08 50.11209 72.83808 27421 ft 447 kts 144°
2026-05-06 15:08 50.08811 72.86861 27735 ft 449 kts 144°
2026-05-06 15:08 50.06399 72.89931 28051 ft 451 kts 144°
2026-05-06 15:08 50.03954 72.93037 28368 ft 453 kts 143°
2026-05-06 15:09 50.01517 72.96131 28654 ft 456 kts 143°
2026-05-06 15:09 49.99070 72.99235 28910 ft 460 kts 143°
2026-05-06 15:09 49.96568 73.02399 29168 ft 463 kts 144°
2026-05-06 15:09 49.94088 73.05535 29473 ft 465 kts 143°
2026-05-06 15:10 49.91578 73.08700 29789 ft 467 kts 143°
2026-05-06 15:10 49.89071 73.11861 30050 ft 469 kts 143°
2026-05-06 15:10 49.86544 73.15042 30326 ft 471 kts 143°
2026-05-06 15:10 49.83981 73.18265 30582 ft 474 kts 143°
2026-05-06 15:11 49.81415 73.21487 30834 ft 476 kts 143°
2026-05-06 15:11 49.78848 73.24702 31146 ft 477 kts 143°
2026-05-06 15:11 49.76276 73.27924 31416 ft 479 kts 143°
2026-05-06 15:11 49.73660 73.31136 31642 ft 482 kts 145°
2026-05-06 15:12 49.70959 73.34096 31964 ft 480 kts 149°
2026-05-06 15:12 49.68115 73.36816 32358 ft 477 kts 153°
2026-05-06 15:12 49.65232 73.39189 32726 ft 475 kts 157°
2026-05-06 15:12 49.62235 73.41292 33077 ft 473 kts 160°
2026-05-06 15:13 49.59201 73.43128 33404 ft 472 kts 162°
2026-05-06 15:13 49.56135 73.44955 33722 ft 472 kts 161°
2026-05-06 15:13 49.53085 73.46777 34083 ft 471 kts 161°
2026-05-06 15:13 49.50038 73.48599 34425 ft 470 kts 161°
2026-05-06 15:14 49.47008 73.50415 34687 ft 470 kts 161°
2026-05-06 15:14 49.43983 73.52234 34976 ft 469 kts 161°
2026-05-06 15:14 49.40960 73.54049 35284 ft 467 kts 161°
2026-05-06 15:14 49.37915 73.55875 35542 ft 467 kts 161°
2026-05-06 15:15 49.34899 73.57680 35760 ft 467 kts 161°
2026-05-06 15:15 49.31897 73.59471 35978 ft 467 kts 162°
2026-05-06 15:15 49.28869 73.61277 36178 ft 468 kts 162°
2026-05-06 15:15 49.25845 73.63079 36394 ft 468 kts 162°
2026-05-06 15:16 49.22791 73.64898 36640 ft 468 kts 162°
2026-05-06 15:16 49.19762 73.66697 36858 ft 468 kts 162°
2026-05-06 15:16 49.16746 73.68488 37060 ft 469 kts 162°
2026-05-06 15:17 49.10669 73.72089 37135 ft 470 kts 162°
2026-05-06 15:17 49.04577 73.75687 37145 ft 470 kts 162°
2026-05-06 15:18 48.98514 73.79261 37148 ft 471 kts 162°
2026-05-06 15:18 48.92396 73.82835 37150 ft 471 kts 162°
2026-05-06 15:19 48.86321 73.86369 37149 ft 471 kts 162°
2026-05-06 15:19 48.80191 73.89932 37149 ft 470 kts 162°
2026-05-06 15:20 48.74124 73.93452 37149 ft 471 kts 162°
2026-05-06 15:20 48.67986 73.97004 37151 ft 472 kts 162°
2026-05-06 15:21 48.61858 74.00539 37144 ft 472 kts 162°
2026-05-06 15:21 48.55740 74.04062 37151 ft 474 kts 162°
2026-05-06 15:22 48.49613 74.07577 37161 ft 473 kts 162°
2026-05-06 15:22 48.43457 74.11103 37163 ft 474 kts 162°
2026-05-06 15:23 48.37323 74.14606 37163 ft 474 kts 162°
2026-05-06 15:23 48.31193 74.18102 37162 ft 474 kts 162°
2026-05-06 15:24 48.25034 74.21602 37160 ft 475 kts 162°
2026-05-06 15:24 48.18836 74.25120 37159 ft 475 kts 162°
2026-05-06 15:25 48.12681 74.28603 37159 ft 476 kts 162°
2026-05-06 15:25 48.06525 74.32108 37155 ft 476 kts 162°
2026-05-06 15:26 48.00322 74.35649 37146 ft 477 kts 161°
2026-05-06 15:26 47.94168 74.39151 37139 ft 478 kts 161°
2026-05-06 15:27 47.87958 74.42674 37134 ft 478 kts 161°
2026-05-06 15:27 47.81754 74.46190 37136 ft 478 kts 161°
2026-05-06 15:28 47.75559 74.49693 37135 ft 477 kts 161°
2026-05-06 15:28 47.69381 74.53175 37134 ft 478 kts 161°
2026-05-06 15:29 47.63185 74.56657 37128 ft 479 kts 161°
2026-05-06 15:29 47.56951 74.60156 37127 ft 480 kts 161°
2026-05-06 15:30 47.50721 74.63644 37126 ft 480 kts 161°
2026-05-06 15:30 47.44481 74.67148 37127 ft 479 kts 161°
2026-05-06 15:31 47.38297 74.70614 37122 ft 480 kts 161°
2026-05-06 15:31 47.33084 74.73530 37120 ft 481 kts 161°
2026-05-06 15:32 47.23747 74.78743 37105 ft 480 kts 161°
2026-05-06 15:32 47.16437 74.82806 37090 ft 480 kts 161°
2026-05-06 15:33 47.10220 74.86257 37082 ft 481 kts 160°
2026-05-06 15:33 47.03968 74.89718 37079 ft 482 kts 160°
2026-05-06 15:34 46.97726 74.93168 37080 ft 482 kts 161°
2026-05-06 15:34 46.92475 74.96057 37066 ft 482 kts 160°
2026-05-06 15:35 46.85222 75.00291 37060 ft 484 kts 157°
2026-05-06 15:35 46.79050 75.04210 37059 ft 484 kts 157°
2026-05-06 15:36 46.72901 75.08112 37062 ft 484 kts 157°
2026-05-06 15:36 46.66740 75.12006 37060 ft 485 kts 156°
2026-05-06 15:37 46.60585 75.15888 37065 ft 485 kts 156°
2026-05-06 15:37 46.54414 75.19770 37061 ft 484 kts 156°
2026-05-06 15:38 46.48260 75.23634 37060 ft 483 kts 156°
2026-05-06 15:38 46.42074 75.27507 37061 ft 483 kts 156°
2026-05-06 15:39 46.36959 75.30703 37067 ft 483 kts 156°
2026-05-06 15:39 46.29752 75.35199 37070 ft 484 kts 156°
2026-05-06 15:40 46.23601 75.39021 37065 ft 482 kts 156°
2026-05-06 15:40 46.17477 75.42828 37065 ft 482 kts 156°
2026-05-06 15:41 46.11318 75.46669 37069 ft 482 kts 156°
2026-05-06 15:41 46.05172 75.50490 37073 ft 481 kts 156°
2026-05-06 15:42 45.99068 75.54282 37068 ft 480 kts 156°
2026-05-06 15:42 45.92937 75.58082 37066 ft 479 kts 156°
2026-05-06 15:43 45.86822 75.61858 37067 ft 480 kts 156°
2026-05-06 15:43 45.80700 75.65636 37064 ft 480 kts 157°
2026-05-06 15:44 45.74585 75.69398 37066 ft 479 kts 157°
2026-05-06 15:44 45.68489 75.73132 37072 ft 478 kts 157°
2026-05-06 15:45 45.62394 75.76852 37069 ft 478 kts 157°
2026-05-06 15:45 45.56300 75.80570 37064 ft 478 kts 157°
2026-05-06 15:46 45.50190 75.84292 37051 ft 477 kts 157°
2026-05-06 15:46 45.44094 75.87996 37065 ft 477 kts 157°
2026-05-06 15:47 45.38043 75.91666 37064 ft 476 kts 157°
2026-05-06 15:47 45.31938 75.95360 37058 ft 475 kts 157°
2026-05-06 15:48 45.25895 75.99007 37061 ft 475 kts 157°
2026-05-06 15:48 45.19810 76.02670 37066 ft 476 kts 157°
2026-05-06 15:49 45.13746 76.06314 37159 ft 473 kts 157°
2026-05-06 15:49 45.07706 76.09935 37075 ft 472 kts 157°
2026-05-06 15:50 45.01685 76.13534 37067 ft 472 kts 157°
2026-05-06 15:50 44.96632 76.16549 37066 ft 473 kts 157°
2026-05-06 15:51 44.90602 76.20141 37068 ft 471 kts 157°
2026-05-06 15:51 44.83559 76.24326 37068 ft 471 kts 157°
2026-05-06 15:52 44.77543 76.27891 37070 ft 470 kts 157°
2026-05-06 15:52 44.71538 76.31441 37070 ft 470 kts 157°
2026-05-06 15:53 44.65525 76.34989 37072 ft 469 kts 157°
2026-05-06 15:53 44.60508 76.37945 37075 ft 469 kts 157°
2026-05-06 15:54 44.53516 76.42053 36897 ft 468 kts 157°
2026-05-06 15:54 44.50507 76.43818 37015 ft 469 kts 157°
2026-05-06 15:54 44.47517 76.45572 37335 ft 469 kts 157°
2026-05-06 15:55 44.44508 76.47334 36888 ft 466 kts 157°
2026-05-06 15:55 44.41533 76.49075 36071 ft 469 kts 157°
2026-05-06 15:55 44.38510 76.50839 35266 ft 474 kts 157°
2026-05-06 15:55 44.35480 76.52688 34397 ft 479 kts 153°
2026-05-06 15:56 44.32623 76.54943 33198 ft 478 kts 146°
2026-05-06 15:56 44.30787 76.56737 32286 ft 481 kts 143°
2026-05-06 15:56 44.27257 76.60447 30581 ft 481 kts 142°
2026-05-06 15:56 44.24616 76.63266 29028 ft 481 kts 142°
2026-05-06 15:57 44.21977 76.66071 27314 ft 482 kts 143°
2026-05-06 15:57 44.19302 76.68893 25509 ft 483 kts 144°
2026-05-06 15:57 44.16665 76.71658 23622 ft 483 kts 144°
2026-05-06 15:57 44.13999 76.74442 21738 ft 481 kts 144°
2026-05-06 15:58 44.11394 76.77157 20173 ft 471 kts 144°
2026-05-06 15:58 44.08804 76.79853 18704 ft 459 kts 144°
2026-05-06 15:58 44.07132 76.81593 17753 ft 452 kts 144°
2026-05-06 15:58 44.04676 76.84150 16687 ft 433 kts 145°
2026-05-06 15:59 44.01625 76.87328 16095 ft 395 kts 145°
2026-05-06 15:59 43.99499 76.89540 15665 ft 372 kts 145°
2026-05-06 15:59 43.97459 76.91660 15233 ft 356 kts 145°
2026-05-06 15:59 43.95520 76.93668 14833 ft 349 kts 145°
2026-05-06 16:00 43.93569 76.95682 14396 ft 347 kts 145°
2026-05-06 16:00 43.92297 76.96996 14128 ft 345 kts 145°
2026-05-06 16:00 43.89748 76.99628 13568 ft 342 kts 145°
2026-05-06 16:00 43.87823 77.01614 13173 ft 339 kts 145°
2026-05-06 16:01 43.85960 77.03538 12777 ft 337 kts 145°
2026-05-06 16:01 43.84070 77.05486 12358 ft 334 kts 145°
2026-05-06 16:01 43.82230 77.07382 11940 ft 332 kts 144°
2026-05-06 16:01 43.80371 77.09297 11519 ft 330 kts 144°
2026-05-06 16:02 43.78540 77.11180 11113 ft 327 kts 144°
2026-05-06 16:02 43.76741 77.13030 10721 ft 325 kts 144°
2026-05-06 16:02 43.74926 77.14894 10308 ft 322 kts 144°
2026-05-06 16:02 43.73137 77.16730 10028 ft 315 kts 144°
2026-05-06 16:03 43.71433 77.18480 10036 ft 299 kts 144°
2026-05-06 16:03 43.70342 77.19599 10027 ft 288 kts 144°
2026-05-06 16:03 43.68203 77.21790 9655 ft 286 kts 143°
2026-05-06 16:03 43.66625 77.23405 9299 ft 285 kts 143°
2026-05-06 16:04 43.65043 77.25023 8945 ft 283 kts 143°
2026-05-06 16:04 43.63451 77.26650 8575 ft 282 kts 143°
2026-05-06 16:04 43.61891 77.28244 8230 ft 280 kts 143°
2026-05-06 16:04 43.60326 77.29842 7956 ft 274 kts 143°
2026-05-06 16:05 43.59316 77.30856 7949 ft 263 kts 144°
2026-05-06 16:05 43.57331 77.32740 7539 ft 261 kts 145°
2026-05-06 16:05 43.55841 77.34145 7221 ft 258 kts 144°
2026-05-06 16:05 43.54335 77.35473 6925 ft 256 kts 155°
2026-05-06 16:06 43.52607 77.35891 6616 ft 255 kts 185°
2026-05-06 16:06 43.50952 77.35093 6316 ft 254 kts 213°
2026-05-06 16:06 43.49682 77.33432 6051 ft 251 kts 231°
2026-05-06 16:06 43.48706 77.31443 5803 ft 248 kts 237°
2026-05-06 16:07 43.47816 77.29432 5592 ft 243 kts 237°
2026-05-06 16:07 43.46952 77.27559 5570 ft 224 kts 236°
2026-05-06 16:07 43.46119 77.25832 5432 ft 207 kts 235°
2026-05-06 16:07 43.45329 77.24241 5160 ft 195 kts 234°
2026-05-06 16:08 43.44584 77.22759 4920 ft 184 kts 234°
2026-05-06 16:08 43.44113 77.21820 4770 ft 178 kts 234°
2026-05-06 16:08 43.43205 77.20010 4476 ft 166 kts 234°
2026-05-06 16:08 43.42569 77.18742 4315 ft 160 kts 234°
2026-05-06 16:09 43.41938 77.17480 4124 ft 159 kts 234°
2026-05-06 16:09 43.41309 77.16218 3925 ft 158 kts 234°
2026-05-06 16:09 43.40687 77.14968 3723 ft 158 kts 234°
2026-05-06 16:09 43.40073 77.13735 3521 ft 157 kts 234°
2026-05-06 16:10 43.39452 77.12486 3314 ft 156 kts 234°
2026-05-06 16:10 43.38849 77.11270 3115 ft 155 kts 234°
2026-05-06 16:10 43.38250 77.10033 2915 ft 154 kts 234°
2026-05-06 16:10 43.37632 77.08838 2736 ft 154 kts 233°
2026-05-06 16:11 43.37231 77.08024 2599 ft 154 kts 235°
2026-05-06 16:11 43.36432 77.06408 2327 ft 152 kts 234°
2026-05-06 16:11 43.36040 77.05614 2258 ft 147 kts 234°
2026-05-06 16:11 43.35418 77.04362 2251 ft 86 kts 235°
2026-05-06 16:12 43.35174 77.03869 2247 ft 47 kts 236°
2026-05-06 16:12 43.34993 77.03506 2242 ft 44 kts 234°
2026-05-06 16:12 43.34827 77.03169 2240 ft 41 kts 237°
2026-05-06 16:12 43.34672 77.02856 2241 ft 37 kts 236°
2026-05-06 16:13 43.34532 77.02573 2243 ft 33 kts 236°
2026-05-06 16:13 43.34493 77.02366 2243 ft 14 kts 271°
2026-05-06 16:13 43.34498 77.02221 2242 ft 15 kts 274°
2026-05-06 16:13 43.34507 77.02060 2241 ft 17 kts 274°
2026-05-06 16:14 43.34514 77.01884 2239 ft 19 kts 274°
2026-05-06 16:14 43.34524 77.01688 2238 ft 20 kts 273°
2026-05-06 16:14 43.34533 77.01526 2240 ft 13 kts 283°
2026-05-06 16:14 43.34580 77.01473 2239 ft 14 kts 341°
2026-05-06 16:15 43.34631 77.01395 2237 ft 7 kts 276°
2026-05-06 16:15 43.34633 77.01360 2237 ft 0 kts 275°
2026-05-06 16:15 43.34634 77.01354 2237 ft 1 kts 275°